"Pseudo-MPEC" for A11aJmQ

Created 2024 Sep 7 12:22:02 UT using Find_Orb

Click here for an explanation of pseudo-MPECs

 
 Astrometry: 
     A11aJmQ* C2024 09 05.48297801 28 10.505+19 24 26.78   ~95Eb 19.25oVNEOCPT05
     A11aJmQ  C2024 09 05.50009201 28 11.071+19 24 37.80   ~95Eb 19.22oVNEOCPT05
     A11aJmQ  C2024 09 05.50190101 28 11.155+19 24 40.10   ~95Eb 19.32oVNEOCPT05
     A11aJmQ  C2024 09 05.50512801 28 11.282+19 24 42.12   ~95Eb 19.24oVNEOCPT05
     A11aJmQ KB2024 09 05.99403 01 28 32.34 +19 30 05.1    ~960M 19.8 GXNEOCPM45
     A11aJmQ KB2024 09 05.99745 01 28 32.49 +19 30 07.4    ~960M 19.8 GXNEOCPM45
     A11aJmQ KB2024 09 06.00088 01 28 32.60 +19 30 09.5    ~960M 19.9 GXNEOCPM45
     A11aJmQ 1C2024 09 06.02991 01 28 33.83 +19 30 27.6    ~966b 21.0 VXNEOCP033
     A11aJmQ 1C2024 09 06.03029 01 28 33.86 +19 30 27.8    ~966b 20.7 VXNEOCP033
     A11aJmQ 1C2024 09 06.03066 01 28 33.87 +19 30 28.2    ~966b 21.0 VXNEOCP033
     A11aJmQ 1C2024 09 06.03114 01 28 33.89 +19 30 28.5    ~966b 20.5 VXNEOCP033
     A11aJmQ 1C2024 09 06.03200 01 28 33.92 +19 30 28.9    ~966b 20.9 VXNEOCP033
     A11aJmQ 1C2024 09 06.03330 01 28 33.97 +19 30 30.0    ~966b 21.1 VXNEOCP033
     A11aJmQ KC2024 09 06.12898301 28 37.46 +19 31 35.0    ~963b 19.5 GVNEOCPL01
     A11aJmQ KC2024 09 06.13235101 28 37.56 +19 31 37.6    ~963b 20.0 GVNEOCPL01
     A11aJmQ KC2024 09 06.13571501 28 37.68 +19 31 39.6    ~963b 19.1 GVNEOCPL01
     A11aJmQ KC2024 09 06.30169001 28 45.34 +19 33 32.3    ~967q 19.5 GVNEOCPH21
     A11aJmQ KC2024 09 06.30448801 28 45.43 +19 33 34.2    ~967q 19.4 GVNEOCPH21
     A11aJmQ KC2024 09 06.30756501 28 45.54 +19 33 36.3    ~967q 19.4 GVNEOCPH21
     A11aJmQ KB2024 09 06.97583 01 29 13.01 +19 40 52.1    ~9787 20.1 GXNEOCPK78
     A11aJmQ KB2024 09 07.00682 01 29 14.06 +19 41 12.8 Duplicat!20.2 GXNEOCPK78
     A11aJmQ KB2024 09 07.00683 01 29 14.05 +19 41 12.7 Duplicat!19.8 GXNEOCPK78
     A11aJmQ KB2024 09 07.03783 01 29 15.11 +19 41 33.0    ~9787 19.5 GXNEOCPK78
     A11aJmQ KB2024 09 07.25712 01 29 24.125+19 43 54.77   ~977b 19.4 RZNEOCPH36
     A11aJmQ KB2024 09 07.27664 01 29 24.787+19 44 07.66   ~977b 19.3 RZNEOCPH36
     A11aJmQ mC2024 09 07.29594601 29 25.714+19 44 21.48   ~9787 19.71GVNEOCPI52
     A11aJmQ KB2024 09 07.29609 01 29 25.447+19 44 20.33   ~977b 19.2 RZNEOCPH36
     A11aJmQ mC2024 09 07.30525201 29 26.059+19 44 27.20   ~9787 19.33GVNEOCPI52
     A11aJmQ mC2024 09 07.31546101 29 26.380+19 44 33.86   ~9787 19.34GVNEOCPI52
     A11aJmQ mC2024 09 07.32388601 29 26.639+19 44 39.19   ~9787 19.47GVNEOCPI52
     A11aJmQ KC2024 09 07.37160001 29 27.77 +19 45 08.5    ~979M 20.0 GVNEOCPH21
     A11aJmQ KC2024 09 07.37439701 29 27.85 +19 45 10.4    ~979M 19.9 GVNEOCPH21
     A11aJmQ KC2024 09 07.37719301 29 27.94 +19 45 12.2    ~979M 19.8 GVNEOCPH21

Station data:
(033) Karl Schwarzschild Observatory, Tautenburg  (N50.980139 E11.711240)
   Germany.  Observer B. Stecklum. 1.34-m f/3 Schmidt + CCD.
(H21) Astronomical Research Observatory, Westfield  (N39.483054 W87.968270)
   US/Illinois.  Observer R. Holmes. Measurers S. Foglia, L. Buzzi, T.
   Linder, R. Holmes. 0.76-m f/3.0 astrograph + CCD0.81-m f/4.0 astrograph +
   CCD0.61-m f/4.5 astrograph + CCD0.40-m f/5.32 astrograph + CCD.
(H36) Sandlot Observatory, Scranton  (N38.797718 W95.706550)  US/Kansas.
   Observer G. Hug. 0.56-m reflector + CCD.
(I52) Steward Observatory, Mt. Lemmon Station  (N32.442570 W110.788920)
   US/Arizona.  Observers T. A. Pruyne, B. M. Africano, E. J. Christensen, G.
   A. Farneth, D. C. Fuls, A. R. Gibbs, A. D. Grauer, H. Gröller, J. A.
   Johnson, R. A. Kowalski, S. M. Larson, G. J. Leonard, D. Rankin, R. L.
   Seaman, F. C. Shelly, K. W. Wierzchoś. 1.0-m prime focus + CCD.
(K78) iota Scorpii Observatory, La Spezia  (N44.126274 E9.853560)  Italy.
   Observers G. Scarfi, L. Sannino, L. Bertagna, F. Francini. Measurers G.
   Scarfi, L. Sannino. 0.40-m f/6 reflector + CCD.
(L01) Višnjan Observatory, Tičan  (N45.290897 E13.749300)  Croatia.
   Observers K. Korlević, D. Pujagic, V. Dobos. Measurers D. Pujagic, K.
   Korlević. 1.0-m f/2.9 reflector + CCD.
(M45) Starhopper Observatory, Sfantu Gheorghe  (N45.865582 E25.768900)
   Romania.  Observer F. Ursache. 0.41-m f/7.5 reflector + CMO.
(T05) ATLAS-HKO, Haleakala  (N20.707551 W156.257010)  US/Hawaii.  Observers
   L. Denneau, A. Heinze, H. Weiland, J. Tonry, H. Flewelling, A.
   Fitzsimmons, D. Young, B. Stalder. Measurers L. Denneau, A. Heinze, J.
   Tonry. 0.5-m f/2.0 Schmidt + CCD.

Orbital elements:  A11aJmQ
   Perihelion 2024 Aug 21.40594 +/- 1.52 TT =  9:44:33 (JD 2460543.90594)
Epoch 2024 Sep  7.0 TT = JDT 2460560.5   Earth MOID: 0.3747   Ma: 0.0889
M   4.98818760 +/- 0.31             (J2000 ecliptic)             AutoNEOCP
n   0.30060088 +/- 0.0133           Peri.   51.75244 +/- 1.8
a   2.20703497 +/- 0.0649           Node   294.39122 +/- 0.8
e   0.3756089 +/- 0.0168            Incl.    3.64470 +/- 0.057
P   3.27879                H 19.63  G  0.15   U  9.8
q 1.37805281 +/- 0.00683    Q 3.03601713 +/- 0.126
31 of 33 observations 2024 Sept. 5-7 (45.5 hr); mean residual 0".23
Residuals in arcseconds: 
240905 T05  .59+  .07+    240906 033  .14-  .12-    240907 K78  .02-  .13+    
240905 T05  .24-  .77-    240906 033  .11-  .10+    240907 H36  .31-  .16+    
240905 T05  .02+  .28+    240906 L01  .03-  .24-    240907 H36  .22-  .20+    
240905 T05  .15+  .08+    240906 L01  .37-  .15+    240907 I52  .14-  .18+    
240905 M45  .08+  .09+    240906 L01  .42-  .05-    240907 H36  .01+  .13+    
240905 M45  .42+  .08+    240906 H21  .07+  .19+    240907 I52  .36+  .25-    
240906 M45  .19+  .14-    240906 H21  .06-  .21+    240907 I52  .14+  .31-    
240906 033  .31-  .01-    240906 H21  .04-  .25+    240907 I52  .10-  .52-    
240906 033  .08-  .07-    240906 K78  .24+  .04+    240907 H21  .24+  .12-    
240906 033  .14-  .08+    240907 K78( .01-  .25+)   240907 H21  .10+  .01+    
240906 033  .11-  .06+    240907 K78( .15-  .14+)   240907 H21  .10+  .04+    

Ephemerides (geocentric):
Date (UTC) HH   RA             Dec           delta  r     elong  mag " sig PA
---- --------  ------------   ------------  ------ ------ -----  --- --------
2024 09 07 12  01 29 32.857   +19 46 36.62  .47151 1.3866 136.1 20.0 .183 117
2024 09 07 13  01 29 34.445   +19 47 03.06  .47142 1.3866 136.1 20.0 .193 114
2024 09 07 14  01 29 36.029   +19 47 29.46  .47134 1.3866 136.2 20.0 .203 111
2024 09 07 15  01 29 37.608   +19 47 55.81  .47125 1.3867 136.2 20.0 .215 108
2024 09 07 16  01 29 39.182   +19 48 22.13  .47117 1.3867 136.2 20.0 .227 106
2024 09 07 17  01 29 40.750   +19 48 48.40  .47109 1.3868 136.3 20.0 .240 103
2024 09 07 18  01 29 42.314   +19 49 14.63  .47100 1.3868 136.3 20.0 .254 101
2024 09 07 19  01 29 43.873   +19 49 40.82  .47092 1.3868 136.3 20.0 .269  99
2024 09 07 20  01 29 45.427   +19 50 06.96  .47084 1.3869 136.4 20.0 .285  97
2024 09 07 21  01 29 46.976   +19 50 33.07  .47075 1.3869 136.4 20.0 .301  95
2024 09 07 22  01 29 48.520   +19 50 59.13  .47067 1.3870 136.4 20.0 .318  94
2024 09 07 23  01 29 50.059   +19 51 25.15  .47059 1.3870 136.4 20.0 .336  92
2024 09 08 00  01 29 51.593   +19 51 51.13  .47050 1.3871 136.5 20.0 .355  91
2024 09 08 01  01 29 53.123   +19 52 17.06  .47042 1.3871 136.5 20.0 .374  89
2024 09 08 02  01 29 54.647   +19 52 42.95  .47034 1.3871 136.5 20.0 .394  88
2024 09 08 03  01 29 56.166   +19 53 08.81  .47026 1.3872 136.6 20.0 .414  87
2024 09 08 04  01 29 57.680   +19 53 34.61  .47017 1.3872 136.6 20.0 .436  86
2024 09 08 05  01 29 59.190   +19 54 00.38  .47009 1.3873 136.6 20.0 .457  85
2024 09 08 06  01 30 00.694   +19 54 26.11  .47001 1.3873 136.7 20.0 .480  84
2024 09 08 07  01 30 02.194   +19 54 51.79  .46993 1.3874 136.7 20.0 .503  83
2024 09 08 08  01 30 03.688   +19 55 17.43  .46985 1.3874 136.7 20.0 .527  82
2024 09 08 09  01 30 05.178   +19 55 43.03  .46977 1.3874 136.7 20.0 .551  82
2024 09 08 10  01 30 06.662   +19 56 08.58  .46969 1.3875 136.8 20.0 .577  81
2024 09 08 11  01 30 08.142   +19 56 34.10  .46960 1.3875 136.8 20.0 .602  80
2024 09 08 12  01 30 09.617   +19 56 59.57  .46952 1.3876 136.8 20.0 .629  80
2024 09 08 13  01 30 11.087   +19 57 25.00  .46944 1.3876 136.9 20.0 .655  79
2024 09 08 14  01 30 12.551   +19 57 50.38  .46936 1.3877 136.9 20.0 .683  79
2024 09 08 15  01 30 14.011   +19 58 15.73  .46928 1.3877 136.9 20.0 .711  78
2024 09 08 16  01 30 15.466   +19 58 41.03  .46920 1.3877 137.0 20.0 .740  78
2024 09 08 17  01 30 16.916   +19 59 06.29  .46912 1.3878 137.0 20.0 .769  77
2024 09 08 18  01 30 18.361   +19 59 31.50  .46904 1.3878 137.0 20.0 .799  77
2024 09 08 19  01 30 19.801   +19 59 56.67  .46896 1.3879 137.1 20.0 .830  76
2024 09 08 20  01 30 21.236   +20 00 21.81  .46888 1.3879 137.1 20.0 .861  76
2024 09 08 21  01 30 22.666   +20 00 46.89  .46880 1.3880 137.1 20.0 .893  75
2024 09 08 22  01 30 24.091   +20 01 11.94  .46872 1.3880 137.1 20.0 .925  75
2024 09 08 23  01 30 25.511   +20 01 36.94  .46864 1.3881 137.2 20.0 .958  75
2024 09 09 00  01 30 26.927   +20 02 01.90  .46856 1.3881 137.2 20.0 0.99  74
2024 09 09 01  01 30 28.337   +20 02 26.82  .46849 1.3881 137.2 20.0 1.03  74
2024 09 09 02  01 30 29.742   +20 02 51.70  .46841 1.3882 137.3 20.0 1.06  74
2024 09 09 03  01 30 31.143   +20 03 16.53  .46833 1.3882 137.3 20.0 1.10  74
2024 09 09 04  01 30 32.538   +20 03 41.32  .46825 1.3883 137.3 20.0 1.13  73
2024 09 09 05  01 30 33.928   +20 04 06.06  .46817 1.3883 137.4 20.0 1.17  73
2024 09 09 06  01 30 35.314   +20 04 30.77  .46809 1.3884 137.4 20.0 1.20  73
2024 09 09 07  01 30 36.694   +20 04 55.43  .46802 1.3884 137.4 20.0 1.24  73
2024 09 09 08  01 30 38.070   +20 05 20.05  .46794 1.3885 137.5 20.0 1.28  72
2024 09 09 09  01 30 39.441   +20 05 44.62  .46786 1.3885 137.5 20.0 1.32  72
2024 09 09 10  01 30 40.806   +20 06 09.15  .46778 1.3886 137.5 20.0 1.36  72
2024 09 09 11  01 30 42.167   +20 06 33.64  .46770 1.3886 137.5 20.0 1.40  72